Regional Weather Roundup
Issued by NWS

Home | Current Version | Previous Version | Graphics & Text | Print | Product List | Glossary On
Versions: 1 2 3 4 5 6 7 8 9 10 11 12 13 14 15 16 17 18 19 20 21 22 23 24 25 26 27 28 29 30 31 32 33 34 35 36 37 38 39 40 41 42 43 44 45 46 47 48 49 50
000
ASUS43 KIND 201859
RWRIN

WEATHER ROUNDUP FOR INDIANA
NATIONAL WEATHER SERVICE INDIANAPOLIS IN
300 PM EDT SUN APR 20 2014

NOTE: "FAIR" INDICATES FEW OR NO CLOUDS BELOW 12,000 FEET WITH NO
SIGNIFICANT WEATHER AND/OR OBSTRUCTIONS TO VISIBILITY.

* - STATION DOES NOT REPORT WEATHER SUCH AS PRECIPITATION OR FOG.

+ - STATION NOT QUALITY CONTROLLED BY THE NATIONAL WEATHER SERVICE.
    USE DATA WITH CAUTION...ESPECIALLY DEWPOINT AND RELATIVE
    HUMIDITY OBSERVATIONS.

INZ001>003-010>013-019-020-202000-
NORTHWEST INDIANA

CITY           SKY/WX    TMP DP  RH WIND       PRES   REMARKS
GARY /AIRPORT/ PTSUNNY   75  36  23 SE12      30.15F
VALPARAISO     SUNNY     72  35  25 S8        30.17F

$$

LMZ046-743>745-202000-
SOUTHERN LAKE MICHIGAN

STATION/POSITION TIME  TEMP WIND        PRES
                       AIR  DIR/SP/G
                 (UTC) (F)  (DEG/KT/KT) (MB)
MICHIGAN CITY    1800   67  190/  6/ 10   N/A

$$

INZ004-005-014>016-021>024-202000-
NORTH CENTRAL INDIANA

CITY           SKY/WX    TMP DP  RH WIND       PRES   REMARKS
GOSHEN         SUNNY     71  30  21 SW8       30.19F
SOUTH BEND     SUNNY     72  32  23 VRB6      30.19F

$$

INZ006>009-017-018-025>027-202000-
NORTHEAST INDIANA

CITY           SKY/WX    TMP DP  RH WIND       PRES   REMARKS
ANGOLA *+      SUNNY     70  34  26 S9        30.20F
FORT WAYNE     PTSUNNY   72  34  24 VRB3      30.20F

$$

INZ028-029-035-036-043>045-051>053-202000-
WEST CENTRAL INDIANA

CITY           SKY/WX    TMP DP  RH WIND       PRES   REMARKS
GREENCASTLE +  SUNNY     72  37  28 CALM      30.18F
LAFAYETTE      PTSUNNY   73  33  23 VRB3      30.17F
TERRE HAUTE    SUNNY     73  40  30 MISG      30.18F

$$

INZ030>032-037>040-046>048-054>057-064-065-202000-
CENTRAL INDIANA

CITY           SKY/WX    TMP DP  RH WIND       PRES   REMARKS
COLUMBUS       SUNNY     73  36  25 S12       30.19F
INDIANAPOLIS   MOSUNNY   72  37  28 NW8       30.18F
-EAGLE CREEK   MOSUNNY   71  34  25 VRB3      30.18F
KOKOMO *+        N/A     73  34  23 S7        30.19F
MT COMFORT *+  MOSUNNY   73  37  27 S10       30.19F
SHELBYVILLE    SUNNY     74  37  26 VRB6      30.18F

$$

INZ033-034-041-042-049-050-058-059-202000-
EAST CENTRAL INDIANA

CITY           SKY/WX    TMP DP  RH WIND       PRES   REMARKS
MUNCIE         SUNNY     72  35  25 S7        30.19F

$$

INZ060-061-067>069-081>083-085>088-202000-
SOUTHWEST INDIANA

CITY           SKY/WX    TMP DP  RH WIND       PRES   REMARKS
EVANSVILLE     PTSUNNY   75  38  26 CALM      30.19F
HUNTINGBURG *+ MOSUNNY   73  37  27 CALM      30.19F

$$

INZ062-063-066-070>080-084-089>092-202000-
SOUTH CENTRAL AND SOUTHEAST INDIANA

CITY           SKY/WX    TMP DP  RH WIND       PRES   REMARKS
BLOOMINGTON    SUNNY     75  25  15 VRB3      30.18F

$$




USA.gov is the U.S. government's official web portal to all federal, state and local government web resources and services.